FW5813 Weather Reports


time (UTC)temp
F
wind
direction
speed
knots
gust
knots
rain 1hr
in
rain 24hr
in
rain mn
in
humidity
%
barometer
mb
20260506175839 71 237 2.6 10.4 0.00 0.00 0.00 50 1002.4
20260506175340 71 199 7.0 10.4 0.00 0.00 0.00 50 1002.1
20260506174340 72 232 3.5 6.1 0.00 0.00 0.00 49 1002.3
20260506173840 72 218 3.5 9.6 0.00 0.00 0.00 49 1002.3
20260506173340 72 162 2.6 9.6 0.00 0.00 0.00 49 1002.4
20260506172840 72 205 4.3 13.0 0.00 0.00 0.00 48 1002.3
20260506165840 74 180 5.2 15.6 0.00 0.00 0.00 47 1002.3
20260506165340 74 198 7.8 15.6 0.00 0.00 0.00 46 1002.4
20260506164840 74 191 5.2 16.5 0.00 0.00 0.00 45 1002.2
20260506164340 74 210 8.7 16.5 0.00 0.00 0.00 45 1002.6
20260506163840 75 194 2.6 14.8 0.00 0.00 0.00 45 1002.4
20260506162840 75 209 6.1 14.8 0.00 0.00 0.00 44 1002.2
20260506162340 75 196 2.6 13.9 0.00 0.00 0.00 44 1002.4
20260506161853 76 205 4.3 14.8 0.00 0.00 0.00 43 1002.5
20260506160841 76 213 5.2 12.2 0.00 0.00 0.00 42 1002.7
20260506160340 76 201 9.6 12.2 0.00 0.00 0.00 42 1002.6
20260506155840 77 193 6.1 11.3 0.00 0.00 0.00 41 1002.6
20260506155340 77 167 2.6 10.4 0.00 0.00 0.00 41 1002.6
20260506154840 77 168 1.7 12.2 0.00 0.00 0.00 41 1002.7
20260506154340 77 162 7.8 13.9 0.00 0.00 0.00 41 1002.6
20260506153340 78 166 4.3 11.3 0.00 0.00 0.00 40 1002.5
20260506152840 78 175 1.7 11.3 0.00 0.00 0.00 40 1002.5
20260506152340 77 161 4.3 14.8 0.00 0.00 0.00 40 1002.6
20260506151840 77 155 6.1 14.8 0.00 0.00 0.00 40 1002.8
20260506151340 77 196 7.8 15.6 0.00 0.00 0.00 40 1002.9
20260506150840 78 203 11.3 15.6 0.00 0.00 0.00 40 1003.0
20260506150340 78 180 3.5 11.3 0.00 0.00 0.00 40 1002.9
20260506145840 78 197 3.5 9.6 0.00 0.00 0.00 40 1002.9
20260506145340 78 225 7.0 9.6 0.00 0.00 0.00 40 1003.1
20260506144840 77 187 4.3 9.6 0.00 0.00 0.00 40 1002.9
20260506143840 78 324 1.7 10.4 0.00 0.00 0.00 40 1003.1
20260506143340 77 198 4.3 13.0 0.00 0.00 0.00 40 1003.3
20260506142840 77 151 5.2 13.0 0.00 0.00 0.00 40 1003.3
20260506142340 77 180 4.3 13.9 0.00 0.00 0.00 40 1003.5
20260506141840 77 169 7.8 13.9 0.00 0.00 0.00 40 1003.3
20260506140840 77 160 4.3 15.6 0.00 0.00 0.00 39 1003.5
20260506134840 76 160 9.6 14.8 0.00 0.00 0.00 42 1003.7
20260506134340 76 109 7.8 14.8 0.00 0.00 0.00 42 1003.9
20260506133840 76 170 8.7 13.9 0.00 0.00 0.00 42 1003.6
20260506133340 76 192 4.3 16.5 0.00 0.00 0.00 43 1004.1
20260506132840 76 93 7.8 16.5 0.00 0.00 0.00 42 1004.0
20260506132340 77 188 6.1 13.9 0.00 0.00 0.00 41 1004.2
20260506131840 77 211 7.8 13.9 0.00 0.00 0.00 41 1004.5
20260506131339 77 181 3.5 13.9 0.00 0.00 0.00 41 1004.6
20260506130841 76 151 4.3 15.6 0.00 0.00 0.00 42 1004.8
20260506130340 75 202 7.8 15.6 0.00 0.00 0.00 42 1004.8
20260506125840 77 166 8.7 14.8 0.00 0.00 0.00 41 1005.0
20260506125340 77 230 5.2 12.2 0.00 0.00 0.00 41 1004.8
20260506124839 77 211 3.5 12.2 0.00 0.00 0.00 41 1005.0
20260506124340 77 112 7.0 13.0 0.00 0.00 0.00 42 1005.2
20260506123840 78 188 5.2 13.0 0.00 0.00 0.00 41 1005.2
20260506123341 78 140 5.2 12.2 0.00 0.00 0.00 41 1005.1
20260506122840 78 213 4.3 13.9 0.00 0.00 0.00 40 1005.1
20260506122341 77 234 7.8 13.9 0.00 0.00 0.00 42 1005.3
20260506121840 77 210 1.7 11.3 0.00 0.00 0.00 42 1005.3
20260506121341 76 180 9.6 11.3 0.00 0.00 0.00 43 1005.3
20260506120839 76 185 8.7 11.3 0.00 0.00 0.00 42 1005.4
20260506120341 76 200 11.3 14.8 0.00 0.00 0.00 43 1005.6
20260506115340 76 196 7.0 17.4 0.00 0.00 0.00 43 1005.7
20260506114840 76 138 7.0 14.8 0.00 0.00 0.00 44 1005.8
20260506114340 76 171 13.9 13.9 0.00 0.00 0.00 43 1005.9
20260506113841 76 194 5.2 16.5 0.00 0.00 0.00 42 1006.1
20260506113340 76 209 11.3 20.0 0.00 0.00 0.00 43 1005.9
20260506112840 76 164 7.8 20.0 0.00 0.00 0.00 43 1006.2
20260506112340 76 253 2.6 15.6 0.00 0.00 0.00 43 1006.0
20260506111340 75 167 10.4 14.8 0.00 0.00 0.00 47 1006.0
20260506110840 74 174 3.5 16.5 0.00 0.00 0.00 47 1006.0
20260506110340 75 180 2.6 16.5 0.00 0.00 0.00 45 1006.1
20260506105840 75 194 4.3 16.5 0.00 0.00 0.00 45 1006.3
20260506105340 76 188 7.0 13.9 0.00 0.00 0.00 43 1006.4
20260506103840 75 97 7.8 14.8 0.00 0.00 0.00 46 1006.4
20260506102839 76 99 3.5 13.9 0.00 0.00 0.00 44 1006.3
20260506102340 75 212 7.8 13.9 0.00 0.00 0.00 45 1006.8
20260506101840 75 129 3.5 7.8 0.00 0.00 0.00 44 1006.8
20260506101340 75 219 3.5 11.3 0.00 0.00 0.00 44 1006.8
20260506100839 75 164 6.1 11.3 0.00 0.00 0.00 45 1006.8
20260506100353 75 151 3.5 11.3 0.00 0.00 0.00 45 1007.1
20260506095840 74 231 3.5 7.8 0.00 0.00 0.00 46 1006.8
20260506095339 74 186 1.7 7.8 0.00 0.00 0.00 47 1007.2
20260506094340 75 213 3.5 7.0 0.00 0.00 0.00 45 1007.3
20260506093840 74 203 4.3 10.4 0.00 0.00 0.00 45 1006.9
20260506093340 75 210 3.5 10.4 0.00 0.00 0.00 44 1007.1
20260506092340 75 167 2.6 6.1 0.00 0.00 0.00 43 1007.2
20260506091839 75 124 0.9 6.1 0.00 0.00 0.00 43 1006.8
20260506091339 75 185 3.5 6.1 0.00 0.00 0.00 42 1007.4
20260506090840 75 184 1.7 7.0 0.00 0.00 0.00 43 1007.2
20260506090340 75 173 5.2 7.0 0.00 0.00 0.00 43 1007.1
20260506085840 74 203 4.3 5.2 0.00 0.00 0.00 42 1007.2
20260506084840 74 183 1.7 5.2 0.00 0.00 0.00 44 1007.2
20260506084340 74 188 2.6 5.2 0.00 0.00 0.00 43 1007.1
20260506083841 74 215 1.7 5.2 0.00 0.00 0.00 44 1007.2
20260506083340 75 196 1.7 4.3 0.00 0.00 0.00 43 1007.4
20260506082840 74 73 1.7 2.6 0.00 0.00 0.00 46 1007.2
20260506082340 75 225 1.7 6.1 0.00 0.00 0.00 43 1007.5
20260506081840 73 106 0.0 6.1 0.00 0.00 0.00 44 1007.3
20260506081340 73 188 0.0 5.2 0.00 0.00 0.00 48 1007.5
20260506080339 72 306 1.7 7.0 0.00 0.00 0.00 48 1007.8
20260506073340 71 216 1.7 5.2 0.00 0.00 0.00 54 1008.1
20260506072840 71 245 2.6 7.8 0.00 0.00 0.00 54 1008.0
20260506072340 70 245 1.7 7.8 0.00 0.00 0.00 56 1007.9
20260506071341 69 233 5.2 7.8 0.00 0.00 0.00 58 1008.1
20260506070841 69 249 0.9 6.1 0.00 0.00 0.00 58 1008.1
20260506070340 67 230 5.2 7.8 0.00 0.00 0.00 60 1008.1
20260506061840 65 176 1.7 6.1 0.00 0.00 0.00 69 1007.9
20260506061341 64 235 3.5 6.1 0.00 0.00 0.00 70 1008.1
20260506060340 64 205 3.5 7.0 0.00 0.00 0.00 70 1008.0
20260506051339 59 223 6.1 8.7 0.00 0.00 0.00 81 1007.9
20260506050840 58 232 3.5 5.2 0.00 0.00 0.00 83 1008.0
20260506050340 58 231 1.7 7.0 0.00 0.00 0.00 84 1008.0
20260506044840 58 198 4.3 6.1 0.00 0.00 0.00 84 1007.7
20260506043339 57 230 2.6 5.2 0.00 0.00 0.00 84 1007.8
20260506042840 57 201 4.3 5.2 0.00 0.00 0.00 84 1007.7
20260506042340 56 214 1.7 5.2 0.00 0.00 0.00 85 1007.6
20260506041840 56 198 1.7 4.3 0.00 0.00 0.00 85 1007.7
20260506040344 55 193 1.7 3.5 0.00 0.00 0.00 85 1007.3
20260506035840 56 152 3.5 3.5 0.00 0.00 0.00 84 1007.1
20260506034840 56 195 0.9 1.7 0.00 0.00 0.00 83 1007.2
20260506034339 56 238 0.0 1.7 0.00 0.00 0.00 82 1007.2
20260506033839 56 223 0.9 2.6 0.00 0.00 0.00 82 1007.3
20260506033340 56 143 0.0 3.5 0.00 0.00 0.00 82 1007.4
20260506032840 56 254 0.0 3.5 0.00 0.00 0.00 82 1007.2
20260506032340 56 170 0.9 2.6 0.00 0.00 0.00 82 1007.3
20260506031339 57 173 0.0 1.7 0.00 0.00 0.00 80 1007.3
20260506030840 58 157 0.0 1.7 0.00 0.00 0.00 80 1007.3
20260506030340 58 197 0.9 1.7 0.00 0.00 0.00 80 1007.5
20260506024840 58 229 0.9 2.6 0.00 0.00 0.00 80 1007.1
20260506024340 58 220 0.0 1.7 0.00 0.00 0.00 80 1007.4
20260506023339 58 248 0.0 1.7 0.00 0.00 0.00 79 1007.1
20260506022840 58 262 0.0 1.7 0.00 0.00 0.00 79 1007.0
20260506022340 59 233 0.9 1.7 0.00 0.00 0.00 78 1007.3
20260506021840 59 35 0.0 1.7 0.00 0.00 0.00 77 1007.2
20260506020839 60 344 0.9 2.6 0.00 0.00 0.00 77 1007.4
20260506015840 60 216 1.7 2.6 0.00 0.00 0.00 75 1007.0
20260506015340 60 202 0.9 2.6 0.00 0.00 0.00 75 1007.2
20260506014839 60 186 0.0 1.7 0.00 0.00 0.00 74 1007.0
20260506014340 60 248 0.9 1.7 0.00 0.00 0.00 74 1007.0
20260506013840 61 89 0.0 2.6 0.00 0.00 0.00 73 1006.9
20260506013340 61 326 1.7 3.5 0.00 0.00 0.00 72 1007.0
20260506012340 61 229 0.0 3.5 0.00 0.00 0.00 71 1007.1
20260506011840 62 206 0.9 5.2 0.00 0.00 0.00 70 1007.1
20260506011340 62 212 0.9 5.2 0.00 0.00 0.00 69 1006.9
20260506010340 62 53 1.7 4.3 0.00 0.00 0.00 68 1007.0
20260506005839 62 44 0.0 4.3 0.00 0.00 0.00 68 1006.9
20260506005339 62 207 0.0 3.5 0.00 0.00 0.00 68 1006.8
20260506004840 62 180 0.0 3.5 0.00 0.00 0.00 67 1006.8
20260506002341 60 19 0.9 1.7 0.00 0.00 0.00 71 1006.2
20260506001840 60 355 0.0 1.7 0.00 0.00 0.00 70 1005.9
20260506001339 60 106 0.0 0.9 0.00 0.00 0.00 69 1006.0
20260506000840 60 93 0.9 0.9 0.00 0.00 0.00 69 1006.0
20260506000340 60 89 0.0 1.7 0.00 0.00 0.00 69 1006.0
20260505235840 60 89 0.0 1.7 0.00 0.00 0.00 68 1005.8
20260505235340 60 84 0.9 1.7 0.00 0.00 0.00 68 1005.8
20260505234840 60 103 0.0 2.6 0.00 0.00 0.00 67 1005.8
20260505234339 60 150 0.0 2.6 0.00 0.00 0.00 66 1005.8
20260505233841 61 165 1.7 3.5 0.00 0.00 0.00 65 1005.9
20260505233340 62 219 1.7 3.5 0.00 0.00 0.00 64 1005.9
20260505232340 62 219 0.0 2.6 0.00 0.00 0.00 64 1005.7
20260505231840 61 33 0.0 3.5 0.00 0.00 0.00 65 1005.8
20260505231353 61 223 0.9 3.5 0.00 0.00 0.00 65 1005.5
20260505230840 60 156 0.0 2.6 0.00 0.00 0.00 65 1005.3
20260505230340 60 263 0.9 3.5 0.00 0.00 0.00 65 1005.6
20260505225840 61 305 0.0 4.3 0.00 0.00 0.00 64 1005.3
20260505225340 61 228 1.7 4.3 0.00 0.00 0.00 64 1005.3
20260505224840 61 248 0.0 3.5 0.00 0.00 0.00 64 1005.0
20260505224340 61 230 1.7 5.2 0.00 0.00 0.00 64 1005.3
20260505223839 61 234 1.7 5.2 0.00 0.00 0.00 63 1005.1
20260505223340 61 207 1.7 5.2 0.00 0.00 0.00 63 1005.0
20260505222839 61 257 5.2 5.2 0.00 0.00 0.00 63 1004.9
20260505222340 61 196 1.7 4.3 0.00 0.00 0.00 63 1004.8
20260505221839 61 208 1.7 4.3 0.00 0.00 0.00 62 1004.8
20260505221340 61 198 1.7 3.5 0.00 0.00 0.00 62 1004.6
20260505220841 61 214 2.6 3.5 0.00 0.00 0.00 62 1004.5
20260505215340 62 207 0.9 4.3 0.00 0.00 0.00 61 1004.4
20260505214853 62 178 1.7 4.3 0.00 0.00 0.00 61 1004.4
20260505213840 62 213 1.7 5.2 0.00 0.00 0.00 60 1004.4
20260505213341 62 26 2.6 5.2 0.00 0.00 0.00 61 1004.3
20260505212840 62 230 4.3 7.0 0.00 0.00 0.00 60 1004.3
20260505211840 62 219 3.5 4.3 0.00 0.00 0.00 59 1004.3
20260505211339 62 237 1.7 7.0 0.00 0.00 0.00 59 1004.3
20260505210840 63 217 5.2 7.8 0.00 0.00 0.00 58 1004.1
20260505205339 63 198 4.3 6.1 0.00 0.00 0.00 58 1004.2
20260505204840 63 223 2.6 6.1 0.00 0.00 0.00 57 1003.8
20260505204339 64 166 0.9 8.7 0.00 0.00 0.00 56 1004.0
20260505203840 64 216 4.3 8.7 0.00 0.00 0.00 55 1003.9
20260505203340 64 216 3.5 5.2 0.00 0.00 0.00 55 1003.7
20260505202840 64 153 1.7 7.8 0.00 0.00 0.00 55 1003.4
20260505202339 64 171 4.3 7.8 0.00 0.00 0.00 55 1003.5
20260505201840 64 202 3.5 6.1 0.00 0.00 0.00 55 1003.5
20260505201340 64 147 1.7 6.1 0.00 0.00 0.00 55 1003.5
20260505200840 64 247 1.7 5.2 0.00 0.00 0.00 55 1003.3
20260505200339 65 199 5.2 8.7 0.00 0.00 0.00 54 1003.4
20260505195840 65 175 3.5 9.6 0.00 0.00 0.00 54 1003.3
20260505195340 65 193 3.5 9.6 0.00 0.00 0.00 53 1003.4
20260505194840 65 219 3.5 7.8 0.00 0.00 0.00 52 1003.4
20260505193840 66 238 3.5 13.9 0.00 0.00 0.00 51 1003.5
20260505193340 66 205 2.6 11.3 0.00 0.00 0.00 51 1003.2
20260505192840 66 221 3.5 11.3 0.00 0.00 0.00 51 1003.2
20260505191840 67 166 6.1 11.3 0.00 0.00 0.00 50 1003.2
20260505191340 67 193 5.2 13.9 0.00 0.00 0.00 50 1003.1
20260505190840 67 220 7.8 13.9 0.00 0.00 0.00 49 1003.1
20260505190340 67 191 5.2 10.4 0.00 0.00 0.00 49 1003.2
20260505185339 68 198 4.3 11.3 0.00 0.00 0.00 48 1003.2
20260505184840 68 177 6.1 12.2 0.00 0.00 0.00 48 1003.2
20260505184340 68 239 4.3 12.2 0.00 0.00 0.00 48 1002.9
20260505183839 68 191 7.0 10.4 0.00 0.00 0.00 48 1003.0
20260505183340 69 168 7.8 10.4 0.00 0.00 0.00 47 1003.3
20260505182840 69 190 7.0 9.6 0.00 0.00 0.00 47 1003.3
20260505181841 70 229 4.3 14.8 0.00 0.00 0.00 47 1003.2
20260505181340 70 205 3.5 10.4 0.00 0.00 0.00 46 1003.2
20260505180340 70 208 4.3 9.6 0.00 0.00 0.00 46 1003.1